GW6683 Weather Reports


time (UTC)temp
F
wind
direction
speed
knots
gust
knots
rain 1hr
in
rain 24hr
in
rain mn
in
humidity
%
barometer
mb
20260504223936 82 78 5.2 10.4 0.00 0.21 0.21 88 1010.8
20260504223431 82 67 5.2 11.3 0.00 0.21 0.21 88 1010.8
20260504222927 82 57 6.1 9.6 0.00 0.21 0.21 87 1010.5
20260504222425 82 60 7.0 11.3 0.00 0.21 0.21 87 1010.5
20260504221923 82 59 2.6 5.2 0.00 0.21 0.21 88 1010.5
20260504221419 82 72 2.6 4.3 0.00 0.21 0.21 89 1010.8
20260504220916 82 62 3.5 6.1 0.00 0.21 0.21 89 1010.5
20260504220413 82 63 7.8 12.2 0.00 0.21 0.21 89 1010.5
20260504215910 82 56 4.3 7.0 0.00 0.21 0.21 89 1010.5
20260504215407 82 60 4.3 9.6 0.00 0.21 0.21 89 1010.2
20260504214903 82 62 5.2 7.8 0.00 0.21 0.21 89 1010.5
20260504214400 82 67 6.1 11.3 0.00 0.21 0.21 89 1010.5
20260504213856 82 71 4.3 7.0 0.00 0.21 0.21 89 1010.5
20260504213352 82 60 5.2 13.9 0.00 0.21 0.21 90 1010.5
20260504212850 81 63 4.3 7.0 0.00 0.21 0.21 90 1010.5
20260504212346 81 79 4.3 8.7 0.00 0.21 0.21 91 1010.5
20260504211844 81 71 6.1 13.9 0.00 0.21 0.21 92 1010.5
20260504211339 81 64 6.1 13.9 0.00 0.21 0.21 92 1010.5
20260504210837 81 61 6.1 9.6 0.00 0.21 0.21 91 1010.5
20260504210334 81 48 2.6 4.3 0.00 0.21 0.21 91 1010.8
20260504205831 81 52 3.5 6.1 0.00 0.21 0.21 92 1010.5
20260504205329 80 58 3.5 6.1 0.00 0.21 0.21 93 1010.5
20260504204827 80 76 4.3 10.4 0.00 0.21 0.21 94 1010.5
20260504204325 80 66 4.3 7.0 0.00 0.21 0.21 95 1010.5
20260504203824 80 58 4.3 6.1 0.00 0.21 0.21 95 1010.5
20260504203321 80 64 4.3 9.6 0.00 0.21 0.21 95 1010.5
20260504202816 80 67 4.3 7.8 0.00 0.21 0.21 95 1010.5
20260504202314 80 68 3.5 6.1 0.00 0.21 0.21 94 1010.5
20260504201810 80 67 4.3 7.0 0.00 0.21 0.21 94 1010.5
20260504201308 80 54 3.5 7.0 0.00 0.21 0.21 94 1010.5
20260504200805 80 87 3.5 7.0 0.00 0.21 0.21 94 1010.5
20260504200302 80 62 6.1 9.6 0.00 0.21 0.21 94 1010.5
20260504195758 80 71 4.3 7.8 0.00 0.21 0.21 94 1010.5
20260504195254 79 85 2.6 5.2 0.00 0.21 0.21 94 1010.5
20260504194751 79 76 2.6 5.2 0.00 0.21 0.21 94 1010.5
20260504194247 79 76 2.6 7.8 0.00 0.21 0.21 95 1010.5
20260504193743 79 68 3.5 5.2 0.00 0.21 0.21 94 1010.5
20260504193241 79 69 4.3 7.8 0.00 0.21 0.21 94 1010.5
20260504192739 79 63 4.3 9.6 0.00 0.21 0.21 94 1010.5
20260504192237 79 59 3.5 7.0 0.00 0.21 0.21 94 1010.5
20260504191735 79 62 4.3 7.8 0.00 0.21 0.21 94 1010.5
20260504191232 79 67 5.2 9.6 0.00 0.21 0.21 94 1010.8
20260504190727 79 61 4.3 6.1 0.00 0.21 0.21 94 1010.5
20260504190224 79 53 2.6 6.1 0.00 0.21 0.21 93 1010.5
20260504185720 79 63 4.3 11.3 0.00 0.21 0.21 93 1010.5
20260504185217 79 72 3.5 6.1 0.00 0.21 0.21 93 1010.5
20260504184713 79 66 3.5 7.8 0.00 0.21 0.21 93 1010.5
20260504184209 78 55 1.7 4.3 0.00 0.21 0.21 93 1010.5
20260504183705 78 64 2.6 4.3 0.00 0.21 0.21 93 1010.5
20260504183202 78 51 1.7 3.5 0.00 0.21 0.21 93 1010.8
20260504182700 78 68 3.5 7.0 0.00 0.21 0.21 92 1010.5
20260504182157 78 57 4.3 6.1 0.00 0.21 0.21 92 1010.8
20260504181655 78 65 3.5 6.1 0.00 0.21 0.21 92 1010.8
20260504181152 78 64 2.6 6.1 0.00 0.21 0.21 91 1010.5
20260504180651 78 80 3.5 7.0 0.00 0.21 0.21 92 1010.5
20260504180149 77 73 2.6 4.3 0.00 0.21 0.21 92 1010.5
20260504175646 77 61 3.5 5.2 0.00 0.21 0.21 91 1010.5
20260504175143 77 65 3.5 6.1 0.00 0.21 0.21 91 1010.5
20260504174641 77 68 2.6 6.1 0.00 0.21 0.21 92 1010.2
20260504174137 77 67 2.6 5.2 0.00 0.21 0.21 92 1010.2
20260504173635 77 22 2.6 5.2 0.00 0.21 0.21 92 1010.5
20260504173132 77 66 1.7 2.6 0.00 0.21 0.21 92 1010.2
20260504172629 76 77 2.6 5.2 0.00 0.21 0.21 93 1010.2
20260504172125 76 64 1.7 2.6 0.00 0.21 0.21 93 1010.2
20260504171621 76 64 1.7 2.6 0.00 0.21 0.21 93 1010.2
20260504171119 76 64 0.9 2.6 0.00 0.21 0.21 94 1010.5
20260504170615 76 64 1.7 2.6 0.00 0.21 0.21 95 1010.5
20260504170113 75 78 1.7 2.6 0.00 0.21 0.21 96 1010.5
20260504150958 75 35 0.0 0.0 0.00 0.20 0.20 99 1012.9
20260504150455 75 35 0.0 0.0 0.00 0.20 0.20 99 1012.9
20260504140921 75 35 0.0 0.0 0.00 0.17 0.17 99 1014.2
20260504140418 75 35 0.0 0.0 0.00 0.16 0.16 98 1014.2
20260504130343 76 11 1.7 2.6 0.00 0.00 0.00 99 1014.2
20260504120306 77 47 0.9 2.6 0.00 4.38 4.38 97 1014.9
20260504110230 76 65 2.6 4.3 0.00 4.33 4.33 96 1013.6
20260504100154 76 108 1.7 4.3 0.00 4.14 4.14 97 1014.2
20260504090116 76 7 1.7 3.5 0.47 3.86 3.86 96 1011.9
20260504081546 76 59 3.5 8.7 0.00 3.69 3.69 97 1011.9
20260504081042 76 72 5.2 9.6 0.00 3.66 3.66 97 1011.9
20260504080539 76 66 4.3 7.8 0.00 3.64 3.64 98 1011.9
20260504050352 77 102 0.9 3.5 0.00 2.42 2.42 98 1010.5
20260504045849 77 91 1.7 4.3 0.00 2.41 2.41 98 1010.5
20260504045350 77 70 2.6 3.5 0.00 2.40 2.40 98 1010.5
20260504044847 77 64 2.6 6.1 0.00 2.40 2.40 99 1010.5
20260504044344 77 63 2.6 5.2 0.47 2.38 2.38 99 1010.5
20260504043841 77 58 3.5 5.2 0.94 2.34 2.34 99 1010.5
20260504043338 78 73 0.9 3.5 0.94 2.26 2.26 99 1010.5
20260504042835 78 325 0.9 3.5 0.47 2.17 2.17 99 1010.8
20260504042332 78 226 1.7 3.5 0.94 2.09 2.09 99 1010.8
20260504041828 78 73 0.0 0.0 2.83 1.90 1.90 99 1010.8
20260504041324 78 77 0.0 2.6 2.83 1.63 1.63 98 1010.8
20260504040821 78 30 2.6 8.7 2.83 1.40 1.40 98 1010.8
20260504040318 78 92 0.0 1.7 2.36 1.18 1.18 98 1010.8
20260504035814 79 92 0.9 4.3 0.47 0.99 0.99 96 1010.5
20260504035312 79 39 0.0 0.0 0.00 0.96 0.96 96 1010.8
20260504034809 79 39 0.0 0.0 0.00 0.95 0.95 96 1010.5
20260504034306 79 39 0.0 0.0 0.47 0.93 0.93 96 1010.5
20260504033803 79 39 0.0 0.0 0.00 0.87 0.87 96 1010.5
20260504033301 79 39 0.0 0.0 0.00 0.86 0.86 96 1010.8
20260504032757 79 39 0.9 1.7 0.00 0.85 0.85 97 1010.8
20260504032254 79 39 0.9 1.7 0.00 0.85 0.85 97 1010.8
20260504031751 78 39 1.7 2.6 0.00 0.85 0.85 97 1010.8
20260504031249 78 39 0.9 1.7 0.00 0.83 0.83 97 1010.8
20260504030744 78 39 0.9 1.7 0.94 0.76 0.76 97 1010.8
20260504030242 78 72 0.9 6.1 0.47 0.68 0.68 97 1011.2
20260504025738 78 69 0.9 3.5 0.00 0.63 0.63 97 1011.2
20260504025235 79 45 2.6 6.1 0.47 0.51 0.51 97 1011.2
20260504024732 79 49 1.7 4.3 0.00 0.51 0.51 96 1011.2
20260504024229 79 56 1.7 3.5 0.00 0.51 0.51 96 1011.2
20260504023726 80 51 0.9 3.5 0.00 0.51 0.51 95 1011.2
20260504023221 80 95 0.9 3.5 0.00 0.51 0.51 95 1010.8
20260504022718 80 77 0.0 0.0 0.00 0.50 0.50 96 1010.8
20260504022214 80 77 0.0 0.0 0.00 0.50 0.50 96 1010.8
20260504021712 80 70 0.9 3.5 0.94 0.47 0.47 95 1011.2
20260504021209 80 65 0.9 2.6 1.89 0.37 0.37 94 1011.2
20260504020705 81 116 0.0 1.7 0.94 0.25 0.25 91 1011.5
20260504020201 81 137 0.0 2.6 0.00 0.23 0.23 93 1011.5
20260504015340 83 18 0.0 0.0 0.00 0.23 0.23 93 1011.5
20260504014836 83 18 0.0 0.0 0.00 0.23 0.23 93 1011.5
20260504014332 83 18 0.0 0.0 0.00 0.23 0.23 93 1011.5
20260504013830 83 63 0.0 1.7 0.00 0.23 0.23 91 1011.9
20260504013328 83 41 0.0 0.0 0.00 0.23 0.23 91 1011.9
20260504012824 84 41 0.0 0.0 0.00 0.23 0.23 91 1011.9
20260504012322 84 43 1.7 2.6 0.00 0.23 0.23 88 1011.9
20260504011819 84 66 0.9 2.6 0.00 0.19 0.19 86 1011.9
20260504011316 83 66 1.7 2.6 0.00 0.19 0.19 88 1011.9
20260504010811 82 66 2.6 4.3 0.00 0.19 0.19 90 1011.5
20260504010307 82 51 1.7 3.5 0.00 0.19 0.19 89 1011.9
20260504005804 83 68 1.7 4.3 0.00 0.19 0.19 88 1012.2
20260504005301 84 43 0.9 2.6 0.00 0.19 0.19 84 1012.2
20260504004759 86 58 0.9 5.2 0.00 0.19 0.19 82 1012.2
20260504004256 89 72 3.5 8.7 0.00 0.19 0.19 80 1011.9
20260504003752 89 48 0.0 0.0 0.00 0.19 0.19 79 1011.9
20260504003249 89 15 1.7 5.2 0.00 0.19 0.19 79 1011.9
20260504002746 89 61 3.5 6.1 0.00 0.19 0.19 78 1012.2
20260504002242 89 77 1.7 3.5 0.00 0.19 0.19 79 1011.9
20260504001740 88 64 0.9 2.6 0.00 0.19 0.19 80 1012.2
20260504001237 88 64 0.9 2.6 0.00 0.19 0.19 80 1012.2
20260504000734 88 57 1.7 4.3 0.00 0.19 0.19 81 1012.2
20260504000231 88 57 1.7 2.6 0.00 0.19 0.19 83 1012.5
20260503235729 87 54 0.0 1.7 0.00 0.19 0.19 83 1012.5
20260503235226 87 54 0.0 0.0 0.00 0.19 0.19 86 1012.2
20260503234724 86 54 0.0 0.0 0.00 0.19 0.19 87 1012.2
20260503234222 85 54 0.0 0.0 0.00 0.19 0.19 86 1012.5
20260503233718 85 54 0.0 0.0 0.00 0.19 0.19 85 1012.5
20260503233214 85 54 0.9 1.7 0.00 0.19 0.19 85 1012.9
20260503232711 85 54 0.0 1.7 0.00 0.19 0.19 86 1012.9
20260503232208 85 54 0.0 0.0 0.00 0.19 0.19 86 1012.5
20260503231707 84 62 2.6 5.2 0.00 0.19 0.19 85 1012.9
20260503231203 85 59 1.7 3.5 0.00 0.19 0.19 85 1012.9
20260503230659 86 71 2.6 4.3 0.00 0.19 0.19 83 1012.9
20260503230156 88 75 3.5 6.1 0.00 0.19 0.19 81 1012.9
20260503225653 88 76 1.7 3.5 0.00 0.19 0.19 80 1012.9
20260503225153 88 57 0.0 0.0 0.00 0.19 0.19 81 1012.5
20260503224651 88 55 1.7 3.5 0.00 0.19 0.19 81 1012.9